< < Back
Terminal Aerodrome Forecast


Current Version              Previous Versions:   1  2  3  4  5  6  7  8  9  

Terminal Aerodrome Forecast

454
FTUS42 KFFC 011720
TAFFTY
TAF
KFTY 011720Z 0118/0218 28007KT P6SM FEW045
     FM020000 28002KT P6SM FEW250
     FM021400 28004KT P6SM FEW040=

Latest METAR

414
SAUS70 KWBC 020700 RRD
MTRFTY
METAR KFTY 020653Z 00000KT 10SM CLR 22/18 A3000 RMK AO2 SLP148
T02220183


USA.gov is the U.S. government's official web portal to all federal, state and local government web resources and services.